Location: Bílinka
(49.3579°N, 14.3767°E)
Time: 09:50:22
(UTC+00:00)

FENGYUN 1C DEB - Pass Details

Date: 22 February 2024
Orbit: 850 x 890 km, 98.8° (Epoch: 12 April)

Event Time Altitude Azimuth Distance (km) Brightness Sun altitude
Rises 17:18:11 0° 147° (SSE) 3,406 ? -8.1°
Reaches altitude 10° 17:20:35 10° 142° (SE) 2,476 ? -8.5°
Maximum altitude 17:25:53 52° 68° (ENE) 1,057 ? -9.3°
Drops below altitude 10° 17:31:16 10° 353° (N) 2,510 ? -10.2°
Sets 17:33:42 0° 349° (N) 3,457 ? -10.6°
